Regional Weather Roundup
Issued by NWS

Home | Current Version | Previous Version | Text Only | Print | Product List | Glossary On
Versions: 1 2 3 4 5 6 7 8 9 10 11 12 13 14 15 16 17 18 19 20 21 22 23 24 25 26 27 28 29 30 31 32 33 34 35 36 37 38 39 40 41 42 43 44 45 46 47 48 49 50
000
ASUS46 KLOX 010413
RWRCA

SOUTHERN CALIFORNIA WEATHER ROUNDUP
NATIONAL WEATHER SERVICE OXNARD CALIFORNIA
900 PM PDT TUE JUN 30 2015

NOTE: "FAIR" INDICATES FEW OR NO CLOUDS BELOW 12,000 FEET WITH NO
SIGNIFICANT WEATHER AND/OR OBSTRUCTIONS TO VISIBILITY.

  -  STATIONS PRECEEDED BY AN ASTERISK (*) ARE NOT NWS OR FAA
     STATIONS AND ARE NOT SUBJECT TO NWS AND FAA QUALITY CONTROL.

CAZ041-042-087-010500-
LA AND ORANGE COUNTY COASTAL AREAS


CITY           SKY/WX    TMP DP  RH WIND       PRES   REMARKS
L.A. DOWNTOWN  PTCLDY    80  60  50 W3        29.81R
L.A. AIRPORT   PTCLDY    71  64  78 W13       29.83R
LONG BEACH     PTCLDY    77  61  57 SW6       29.80S

CITY           SKY/WX    TMP DP  RH WIND       PRES   REMARKS
AVALON           N/A     70 N/A N/A MISG        N/A
FULLERTON      PTCLDY    82  57  42 SW5       29.80R
*GETTY CENTER    N/A     77  50  38 W6          N/A
HAWTHORNE      PTCLDY    72  64  76 W12       29.82R
*REDONDO BEACH   N/A     70  64  81 W3        29.82S
SANTA ANA      PTCLDY    75  63  66 W8        29.81R
STA MONICA APT PTCLDY    70  64  81 W9        29.84R
*UCLA            N/A    N/A N/A N/A SW13      29.81R

$$

CAZ547-548-048-010500-
LA COUNTY VALLEYS AND INLAND EMPIRE


CITY           SKY/WX    TMP DP  RH WIND       PRES   REMARKS
BURBANK        PTCLDY    88  41  19 SW8       29.82S
VAN NUYS       PTCLDY    85  44  23 SW9       29.83S

CITY           SKY/WX    TMP DP  RH WIND       PRES   REMARKS
CORONA AIRPORT CLEAR     82  53  36 CALM      29.82F
*CHATSWORTH      N/A     83  51  32 S2        29.80R
CHINO          CLEAR     83  52  34 VRB3      29.84S
MARCH AFB      PTCLDY    80  53  39 S3        29.88S
*NORTHRIDGE      N/A     81  43  26 S3          N/A
ONTARIO        PTCLDY    83  48  29 CALM      29.84F
*PASADENA        N/A     84  46  26 CALM        N/A
POMONA         CLEAR     81  50  34 CALM      29.87F
RIVERSIDE      PTCLDY    83  51  33 SE3       29.84F
SAN BERNARDINO PTCLDY    84  37  18 CALM      29.86S
*SAN GABRIEL     N/A     86  46  24 CALM      29.87R
*WHITEMAN AP   NOT AVBL
*WOODLAND HILL   N/A     81  45  28 S5          N/A

$$

CAZ054-055-010500-
LA AND SAN BERNARDINO COUNTY MOUNTAINS


CITY           SKY/WX    TMP DP  RH WIND       PRES   REMARKS
*BIG BEAR AIRP PTCLDY    63  50  63 CALM      30.27R
SANDBERG       PTCLDY    81  52  36 NW10      30.11R

$$

CAZ028-029-059-060-099-010500-
ANTELOPE VALLEY AND SURROUNDING AREAS


CITY           SKY/WX    TMP DP  RH WIND       PRES   REMARKS
LANCASTER      CLEAR     86  48  26 SW9       29.91S
PALMDALE       CLEAR     83  47  28 S8        29.94S

CITY           SKY/WX    TMP DP  RH WIND       PRES   REMARKS
29 PALMS       CLEAR     94  55  26 SW15      29.89R HX  92
BARSTOW/DAGGET CLEAR     93  48  21 W20       29.85R
BISHOP         PTCLDY    86  46  24 NW8       30.05R
CHINA LAKE     MOCLDY    97  47  18 W9        29.83R HX  93
EDWARDS AFB    MOCLDY    87  46  23 S13       29.88F
MOJAVE         FAIR      90  50  25 W20G29    29.92F
NEEDLES        MOCLDY   106  55  18 SW14      29.70R HX 105
VICTORVILLE    CLEAR     82  45  26 CALM      29.96S

$$

CAZ039-040-010500-
VENTURA AND SANTA BARBARA COUNTY COAST


CITY           SKY/WX    TMP DP  RH WIND       PRES   REMARKS
CAMARILLO      MOCLDY    70  61  73 W9        29.83R
NWS OXNARD       N/A     69  61  76 CALM      29.83R
OXNARD AIRPORT MOCLDY    68  62  81 W13       29.83R
*POINT MUGU    MOCLDY    69  62  78 NW9       29.83R
SBA APT/GOLETA MOCLDY    66  60  81 W14G23    29.81F
*SANTA BARBARA   N/A     70  58  66 CALM      29.91R
*VENTURA         N/A     70  59  68 SW6       29.44R

$$

CAZ044-045-010500-
VENTURA COUNTY VALLEYS


CITY           SKY/WX    TMP DP  RH WIND       PRES   REMARKS
*SIMI VALLEY     N/A     82  54  37 CALM      29.75S
*OJAI            N/A     81  54  38 CALM      29.73S
*FILLMORE        N/A     77  59  53 CALM      29.71S

$$

CAZ053-010500-
VENTURA COUNTY MOUNTAINS


CITY           SKY/WX    TMP DP  RH WIND       PRES   REMARKS

$$

CAZ034-035-036-010500-
CENTRAL COAST AND SANTA YNEZ VALLEY


CITY           SKY/WX    TMP DP  RH WIND       PRES   REMARKS
SAN LUIS OBISP PTCLDY    61  55  81 NW10      29.88F
SANTA MARIA    MOCLDY    59  57  93 NW5       29.89R

CITY           SKY/WX    TMP DP  RH WIND       PRES   REMARKS
*CAL POLY SLO    N/A     66  55  68 S5          N/A
*LOMPOC        CLOUDY    57  54  88 W6        29.90R
*PISMO BEACH     N/A     58  56  95 W2        29.89S
*SANTA YNEZ    FAIR      77  52  41 W8        29.86S

$$

CAZ037-038-051-010500-
SAN LUIS OBISPO COUNTY INTERIOR AND CUYAMA VALLEY


CITY           SKY/WX    TMP DP  RH WIND       PRES   REMARKS
*CUYAMA          N/A     86  37  17 W8        29.77R
PASO ROBLES    CLEAR     79  50  36 SW13      29.88R

$$

CAZ032-033-061-010500-
SOUTHERN DESERTS


CITY           SKY/WX    TMP DP  RH WIND       PRES   REMARKS
BLYTHE         PTCLDY   100  58  24 SW10      29.71R HX  99
IMPERIAL       CLEAR     98  60  28 SE6       29.70R HX  98
PALM SPRINGS   PTCLDY    97  57  26 NW13G23   29.74R HX  96
THERMAL        CLEAR     96  60  30 NW5       29.67R HX  96

$$

ELSEWHERE ACROSS THE WESTERN UNITED STATES AND MEXICO


CITY           SKY/WX    TMP DP  RH WIND       PRES   REMARKS
DENVER, CO     CLOUDY    78  50  37 NW25G33   30.14R
GRAND CANYON,  CLOUDY    66  59  78 NE3       30.21R
HONOLULU, HI   MOSUNNY   82  72  69 S6        29.91R
KAHULUI, MAUI  MOSUNNY   84  72  65 NW7       29.90R
LAKE TAHOE, CA CLOUDY    78  48  34 SW3       30.26R
LAS VEGAS, NV  CLOUDY   107  45  12 SW7       29.72S HX 102
MAMMOTH LAKES, FAIR      68  48  49 CALM      30.33S
MEXICO CITY, M LGT RAIN  59  55  88 CALM      30.38R
PHOENIX, AZ    CLOUDY   100  59  25 W10       29.74R HX 100
PORTLAND, OR   CLEAR     82  59  45 NW12      29.97R
RENO, NV       CLOUDY    79  54  41 S12G24    30.14R THUNDER
SALT LAKE CITY CLOUDY    88  57  34 NW23G36   30.02R
SAN DIEGO, CA  PTCLDY    73  64  73 CALM      29.86R
SAN FRANCISCO, PTCLDY    62  54  74 W15       29.83R
SAN JOSE, CA   MOCLDY    78  51  38 W7        29.82R
SEATTLE, WA    PTCLDY    80  52  37 N9        30.03S
TIJUANA, MEX   PTCLDY    70  63  78 N5        29.88R

$$

STATION/POSITION TIME  TEMP    WIND        PRES    VSBY  WAVE
                       AIR SEA DIR/SP/G                  HT/PER
                 (UTC) (F)     (DEG/KT/KT) (MB)    (MI)  (FT/S)
POINT ARGUELLO B NOT AVBL
WEST SANTA BARBA 0350   58 60  310/ 12/ 14 1010.0F         6/ 8
POINT CONCEPTION NOT AVBL
EAST SANTA BARBA 0400   62 65  230/ 14/ 17 1010.0S
SANTA MONICA BAY 0350   67 67  230/  6/  6 1010.1R         3/ 8



USA.gov is the U.S. government's official web portal to all federal, state and local government web resources and services.